This is the latest recevied weather packets stored in our database for station/object K5NOC-12. If no packets are shown the sender has not sent any weather packets the latest 10 day(s).
| Time | Temp. | Humidity | Pressure | Rain* | Wind** | Luminosity | Snow |
|---|---|---|---|---|---|---|---|
| 1787796207 | 29.44° C | 49% | 1020.8 hPa | 0 mm | - | - | - |
| 1787795306 | 29.44° C | 46% | 1020.8 hPa | 0 mm | - | - | - |
| 1787794406 | 30° C | 44% | 1020.7 hPa | 0 mm | - | - | - |
| 1787793506 | 30.56° C | 44% | 1020.7 hPa | 0 mm | - | - | - |
| 1787792606 | 30.56° C | 42% | 1020.7 hPa | 0 mm | - | - | - |
| 1787791706 | 31.11° C | 41% | 1020.9 hPa | 0 mm | - | - | - |
| 1787790806 | 31.11° C | 40% | 1020.9 hPa | 0 mm | - | - | - |
| 1787789905 | 31.67° C | 39% | 1020.8 hPa | 0 mm | - | - | - |
| 1787789005 | 32.22° C | 37% | 1020.7 hPa | 0 mm | - | - | - |
| 1787788105 | 32.78° C | 34% | 1020.7 hPa | 0 mm | - | - | - |
| 1787787205 | 33.89° C | 32% | 1020.7 hPa | 0 mm | - | - | - |
| 1787786305 | 34.44° C | 32% | 1020.7 hPa | 0 mm | - | - | - |
| 1787785404 | 33.89° C | 33% | 1020.8 hPa | 0 mm | - | - | - |
| 1787784504 | 33.33° C | 33% | 1021 hPa | 0 mm | - | - | - |
| 1787783604 | 33.89° C | 31% | 1021 hPa | 0 mm | - | - | - |
| 1787782704 | 34.44° C | 31% | 1021.1 hPa | 0 mm | - | - | - |
| 1787781804 | 33.89° C | 30% | 1021.2 hPa | 0 mm | - | - | - |
| 1787780904 | 33.89° C | 32% | 1021.2 hPa | 0 mm | - | - | - |
| 1787780004 | 33.33° C | 32% | 1021.4 hPa | 0 mm | - | - | - |
| 1787779103 | 33.89° C | 33% | 1021.6 hPa | 0 mm | - | - | - |
| 1787778203 | 32.78° C | 34% | 1021.6 hPa | 0 mm | - | - | - |
| 1787777303 | 32.78° C | 36% | 1021.9 hPa | 0 mm | - | - | - |
| 1787776403 | 33.33° C | 34% | 1022.3 hPa | 0 mm | - | - | - |
| 1787775503 | 32.78° C | 34% | 1022.5 hPa | 0 mm | - | - | - |
| 1787774603 | 32.22° C | 34% | 1022.7 hPa | 0 mm | - | - | - |
* Rain latest hour (hover to see other rain measurements)
** Current wind speed in m/s (hover to see current wind gust speed)